owner,sensor,date,latitude,longitude,vertical_datum,wind_speed,wind_to_direction,wind_speed_of_gust,qcFlag 
DISL,ioos:station:DISL:MBLA:1,2017-11-01T00:00:00Z,30.4367,-88.0117,14.2,1.0,142.0,99.0,'11111222,11111222,11144222' 
DISL,ioos:station:DISL:MBLA:1,2017-11-01T00:30:00Z,30.4367,-88.0117,14.2,1.1,107.7,-9999.0,'1111122,1111122,1111122' 
DISL,ioos:station:DISL:MBLA:1,2017-11-01T01:00:00Z,30.4367,-88.0117,14.2,1.5,94.0,99.0,'11111222,11111222,11144222' 
DISL,ioos:station:DISL:MBLA:1,2017-11-01T01:30:00Z,30.4367,-88.0117,14.2,1.69,83.2,-9999.0,'1111122,1111122,1111122' 
DISL,ioos:station:DISL:MBLA:1,2017-11-01T02:00:00Z,30.4367,-88.0117,14.2,2.3,94.0,99.0,'11111222,11111222,11144222' 
DISL,ioos:station:DISL:MBLA:1,2017-11-01T02:30:00Z,30.4367,-88.0117,14.2,,,-9999.0,'1111122,1111122,1111122' 
DISL,ioos:station:DISL:MBLA:1,2017-11-01T03:00:00Z,30.4367,-88.0117,14.2,4.1,112.0,99.0,'11111222,11111222,11144222' 
DISL,ioos:station:DISL:MBLA:1,2017-11-01T03:30:00Z,30.4367,-88.0117,14.2,4.2,105.8,-9999.0,'1111122,1111122,1111122' 
DISL,ioos:station:DISL:MBLA:1,2017-11-01T04:00:00Z,30.4367,-88.0117,14.2,3.9,115.0,99.0,'11111222,11111222,11144222' 
DISL,ioos:station:DISL:MBLA:1,2017-11-01T04:30:00Z,30.4367,-88.0117,14.2,3.92,112.7,-9999.0,'1111122,1111122,1111122' 
DISL,ioos:station:DISL:MBLA:1,2017-11-01T05:00:00Z,30.4367,-88.0117,14.2,3.8,106.0,99.0,'11111222,11111222,11144222' 
DISL,ioos:station:DISL:MBLA:1,2017-11-01T05:30:00Z,30.4367,-88.0117,14.2,3.88,107.6,-9999.0,'1111122,1111122,1111122' 
DISL,ioos:station:DISL:MBLA:1,2017-11-01T06:00:00Z,30.4367,-88.0117,14.2,3.5,98.0,99.0,'11111222,11111222,11144222' 
DISL,ioos:station:DISL:MBLA:1,2017-11-01T06:30:00Z,30.4367,-88.0117,14.2,3.29,104.3,-9999.0,'1111122,1111122,1111122' 
DISL,ioos:station:DISL:MBLA:1,2017-11-01T07:00:00Z,30.4367,-88.0117,14.2,3.6,104.0,99.0,'11111222,11111222,11144222' 
DISL,ioos:station:DISL:MBLA:1,2017-11-01T07:30:00Z,30.4367,-88.0117,14.2,3.34,99.1,-9999.0,'1111122,1111122,1111122' 
DISL,ioos:station:DISL:MBLA:1,2017-11-01T08:00:00Z,30.4367,-88.0117,14.2,3.8,103.0,99.0,'11111222,11111222,11144222' 
DISL,ioos:station:DISL:MBLA:1,2017-11-01T08:30:00Z,30.4367,-88.0117,14.2,4.06,98.9,-9999.0,'1111122,1111122,1111122' 
DISL,ioos:station:DISL:MBLA:1,2017-11-01T09:00:00Z,30.4367,-88.0117,14.2,4.0,101.0,99.0,'11111222,11111222,11144222' 
DISL,ioos:station:DISL:MBLA:1,2017-11-01T09:30:00Z,30.4367,-88.0117,14.2,4.73,104.3,-9999.0,'1111122,1111122,1111122' 
DISL,ioos:station:DISL:MBLA:1,2017-11-01T10:00:00Z,30.4367,-88.0117,14.2,4.9,105.0,99.0,'11111222,11111222,11144222' 
DISL,ioos:station:DISL:MBLA:1,2017-11-01T10:30:00Z,30.4367,-88.0117,14.2,,,-9999.0,'1111122,1111122,1111122' 
DISL,ioos:station:DISL:MBLA:1,2017-11-01T11:00:00Z,30.4367,-88.0117,14.2,5.8,111.0,99.0,'11111222,11111222,11144222' 
DISL,ioos:station:DISL:MBLA:1,2017-11-01T11:30:00Z,30.4367,-88.0117,14.2,5.84,112.7,-9999.0,'1111122,1111122,1111122' 
DISL,ioos:station:DISL:MBLA:1,2017-11-01T12:00:00Z,30.4367,-88.0117,14.2,5.8,110.0,99.0,'11111222,11111222,11144222' 
DISL,ioos:station:DISL:MBLA:1,2017-11-01T12:30:00Z,30.4367,-88.0117,14.2,6.62,110.9,-9999.0,'1111122,1111122,1111122' 
DISL,ioos:station:DISL:MBLA:1,2017-11-01T13:00:00Z,30.4367,-88.0117,14.2,4.8,109.0,99.0,'11111222,11111222,11144222' 
DISL,ioos:station:DISL:MBLA:1,2017-11-01T13:30:00Z,30.4367,-88.0117,14.2,4.84,103.2,-9999.0,'1111122,1111122,1111122' 
DISL,ioos:station:DISL:MBLA:1,2017-11-01T14:00:00Z,30.4367,-88.0117,14.2,5.5,109.0,99.0,'11111222,11111222,11144222' 
DISL,ioos:station:DISL:MBLA:1,2017-11-01T14:30:00Z,30.4367,-88.0117,14.2,5.57,115.2,-9999.0,'1111122,1111122,1111122' 
DISL,ioos:station:DISL:MBLA:1,2017-11-01T15:00:00Z,30.4367,-88.0117,14.2,5.8,117.0,99.0,'11111222,11111222,11144222' 
DISL,ioos:station:DISL:MBLA:1,2017-11-01T15:30:00Z,30.4367,-88.0117,14.2,5.22,127.6,-9999.0,'1111122,1111122,1111122' 
DISL,ioos:station:DISL:MBLA:1,2017-11-01T16:00:00Z,30.4367,-88.0117,14.2,4.8,134.0,99.0,'11111222,11111222,11144222' 
DISL,ioos:station:DISL:MBLA:1,2017-11-01T16:30:00Z,30.4367,-88.0117,14.2,5.92,136.2,-9999.0,'1111122,1111122,1111122' 
DISL,ioos:station:DISL:MBLA:1,2017-11-01T17:00:00Z,30.4367,-88.0117,14.2,6.0,134.0,99.0,'11111222,11111222,11144222' 
DISL,ioos:station:DISL:MBLA:1,2017-11-01T17:30:00Z,30.4367,-88.0117,14.2,6.16,134.2,-9999.0,'1111122,1111122,1111122' 
DISL,ioos:station:DISL:MBLA:1,2017-11-01T18:00:00Z,30.4367,-88.0117,14.2,5.7,127.0,99.0,'11111222,11111222,11144222' 
DISL,ioos:station:DISL:MBLA:1,2017-11-01T18:30:00Z,30.4367,-88.0117,14.2,5.15,137.8,-9999.0,'1111122,1111122,1111122' 
DISL,ioos:station:DISL:MBLA:1,2017-11-01T19:00:00Z,30.4367,-88.0117,14.2,4.9,142.0,99.0,'11111222,11111222,11144222' 
DISL,ioos:station:DISL:MBLA:1,2017-11-01T19:30:00Z,30.4367,-88.0117,14.2,5.68,136.0,-9999.0,'1111122,1111122,1111122' 
DISL,ioos:station:DISL:MBLA:1,2017-11-01T20:00:00Z,30.4367,-88.0117,14.2,6.2,133.0,99.0,'11111222,11111222,11144222' 
DISL,ioos:station:DISL:MBLA:1,2017-11-01T20:30:00Z,30.4367,-88.0117,14.2,6.32,134.4,-9999.0,'1111122,1111122,1111122' 
DISL,ioos:station:DISL:MBLA:1,2017-11-01T21:00:00Z,30.4367,-88.0117,14.2,5.8,138.0,99.0,'11111222,11111222,11144222' 
DISL,ioos:station:DISL:MBLA:1,2017-11-01T21:30:00Z,30.4367,-88.0117,14.2,5.39,135.0,-9999.0,'1111122,1111122,1111122' 
DISL,ioos:station:DISL:MBLA:1,2017-11-01T22:00:00Z,30.4367,-88.0117,14.2,5.5,129.0,99.0,'11111222,11111222,11144222' 
DISL,ioos:station:DISL:MBLA:1,2017-11-01T22:30:00Z,30.4367,-88.0117,14.2,5.94,134.8,-9999.0,'1111122,1111122,1111122' 
DISL,ioos:station:DISL:MBLA:1,2017-11-01T23:00:00Z,30.4367,-88.0117,14.2,4.7,143.0,99.0,'11111222,11111222,11144222' 
DISL,ioos:station:DISL:MBLA:1,2017-11-01T23:30:00Z,30.4367,-88.0117,14.2,5.31,134.7,-9999.0,'1111122,1111122,1111122' 
DISL,ioos:station:DISL:MBLA:1,2017-11-02T00:00:00Z,30.4367,-88.0117,14.2,5.6,132.0,99.0,'11111222,11111222,11144222' 
DISL,ioos:station:DISL:MBLA:1,2017-11-02T00:30:00Z,30.4367,-88.0117,14.2,6.01,137.8,-9999.0,'1111122,1111122,1111122' 
DISL,ioos:station:DISL:MBLA:1,2017-11-02T01:00:00Z,30.4367,-88.0117,14.2,7.6,141.0,99.0,'11111222,11111222,11144222' 
DISL,ioos:station:DISL:MBLA:1,2017-11-02T01:30:00Z,30.4367,-88.0117,14.2,6.93,138.2,-9999.0,'1111122,1111122,1111122' 
DISL,ioos:station:DISL:MBLA:1,2017-11-02T02:00:00Z,30.4367,-88.0117,14.2,6.7,146.0,99.0,'11111222,11111222,11144222' 
DISL,ioos:station:DISL:MBLA:1,2017-11-02T02:30:00Z,30.4367,-88.0117,14.2,,,-9999.0,'1111122,1111122,1111122' 
DISL,ioos:station:DISL:MBLA:1,2017-11-02T03:00:00Z,30.4367,-88.0117,14.2,8.0,148.0,99.0,'11111222,11111222,11144222' 
DISL,ioos:station:DISL:MBLA:1,2017-11-02T03:30:00Z,30.4367,-88.0117,14.2,,,-9999.0,'1111122,1111122,1111122' 
DISL,ioos:station:DISL:MBLA:1,2017-11-02T04:00:00Z,30.4367,-88.0117,14.2,5.9,159.0,99.0,'11111222,11111222,11144222' 
DISL,ioos:station:DISL:MBLA:1,2017-11-02T04:30:00Z,30.4367,-88.0117,14.2,5.35,160.6,-9999.0,'1111122,1111122,1111122' 
DISL,ioos:station:DISL:MBLA:1,2017-11-02T05:00:00Z,30.4367,-88.0117,14.2,7.9,150.0,99.0,'11111222,11111222,11144222' 
DISL,ioos:station:DISL:MBLA:1,2017-11-02T05:30:00Z,30.4367,-88.0117,14.2,6.66,152.5,-9999.0,'1111122,1111122,1111122' 
DISL,ioos:station:DISL:MBLA:1,2017-11-02T06:00:00Z,30.4367,-88.0117,14.2,6.2,161.0,99.0,'11111222,11111222,11144222' 
DISL,ioos:station:DISL:MBLA:1,2017-11-02T06:30:00Z,30.4367,-88.0117,14.2,5.85,158.6,-9999.0,'1111122,1111122,1111122' 
DISL,ioos:station:DISL:MBLA:1,2017-11-02T07:00:00Z,30.4367,-88.0117,14.2,4.7,152.0,99.0,'11111222,11111222,11144222' 
DISL,ioos:station:DISL:MBLA:1,2017-11-02T07:30:00Z,30.4367,-88.0117,14.2,2.15,139.0,-9999.0,'1111122,1111122,1111122' 
DISL,ioos:station:DISL:MBLA:1,2017-11-02T08:00:00Z,30.4367,-88.0117,14.2,2.4,119.0,99.0,'11111222,11111222,11144222' 
DISL,ioos:station:DISL:MBLA:1,2017-11-02T08:30:00Z,30.4367,-88.0117,14.2,2.63,113.5,-9999.0,'1111122,1111122,1111122' 
DISL,ioos:station:DISL:MBLA:1,2017-11-02T09:00:00Z,30.4367,-88.0117,14.2,3.2,125.0,99.0,'11111222,11111222,11144222' 
DISL,ioos:station:DISL:MBLA:1,2017-11-02T09:30:00Z,30.4367,-88.0117,14.2,2.92,84.6,-9999.0,'1111122,1111122,1111122' 
DISL,ioos:station:DISL:MBLA:1,2017-11-02T10:00:00Z,30.4367,-88.0117,14.2,4.0,87.0,99.0,'11111222,11111222,11144222' 
DISL,ioos:station:DISL:MBLA:1,2017-11-02T10:30:00Z,30.4367,-88.0117,14.2,3.98,75.71,-9999.0,'1111122,1111122,1111122' 
DISL,ioos:station:DISL:MBLA:1,2017-11-02T11:00:00Z,30.4367,-88.0117,14.2,3.7,84.0,99.0,'11111222,11111222,11144222' 
DISL,ioos:station:DISL:MBLA:1,2017-11-02T11:30:00Z,30.4367,-88.0117,14.2,3.6,91.1,-9999.0,'1111122,1111122,1111122' 
DISL,ioos:station:DISL:MBLA:1,2017-11-02T12:00:00Z,30.4367,-88.0117,14.2,3.6,88.0,99.0,'11111222,11111222,11144222' 
DISL,ioos:station:DISL:MBLA:1,2017-11-02T12:30:00Z,30.4367,-88.0117,14.2,3.95,97.1,-9999.0,'1111122,1111122,1111122' 
DISL,ioos:station:DISL:MBLA:1,2017-11-02T13:00:00Z,30.4367,-88.0117,14.2,4.1,108.0,99.0,'11111222,11111222,11144222' 
DISL,ioos:station:DISL:MBLA:1,2017-11-02T13:30:00Z,30.4367,-88.0117,14.2,3.27,104.0,-9999.0,'1111122,1111122,1111122' 
DISL,ioos:station:DISL:MBLA:1,2017-11-02T14:00:00Z,30.4367,-88.0117,14.2,3.2,102.0,99.0,'11111222,11111222,11144222' 
DISL,ioos:station:DISL:MBLA:1,2017-11-02T14:30:00Z,30.4367,-88.0117,14.2,3.61,95.9,-9999.0,'1111122,1111122,1111122' 
DISL,ioos:station:DISL:MBLA:1,2017-11-02T15:00:00Z,30.4367,-88.0117,14.2,4.1,107.0,99.0,'11111222,11111222,11144222' 
DISL,ioos:station:DISL:MBLA:1,2017-11-02T15:30:00Z,30.4367,-88.0117,14.2,5.05,121.2,-9999.0,'1111122,1111122,1111122' 
DISL,ioos:station:DISL:MBLA:1,2017-11-02T16:00:00Z,30.4367,-88.0117,14.2,4.9,124.0,99.0,'11111222,11111222,11144222' 
DISL,ioos:station:DISL:MBLA:1,2017-11-02T16:30:00Z,30.4367,-88.0117,14.2,4.44,126.2,-9999.0,'1111122,1111122,1111122' 
DISL,ioos:station:DISL:MBLA:1,2017-11-02T17:00:00Z,30.4367,-88.0117,14.2,4.5,128.0,99.0,'11111222,11111222,11144222' 
DISL,ioos:station:DISL:MBLA:1,2017-11-02T17:30:00Z,30.4367,-88.0117,14.2,4.58,129.3,-9999.0,'1111122,1111122,1111122' 
DISL,ioos:station:DISL:MBLA:1,2017-11-02T18:00:00Z,30.4367,-88.0117,14.2,4.6,132.0,99.0,'11111222,11111222,11144222' 
DISL,ioos:station:DISL:MBLA:1,2017-11-02T18:30:00Z,30.4367,-88.0117,14.2,4.5,140.1,-9999.0,'1111122,1111122,1111122' 
DISL,ioos:station:DISL:MBLA:1,2017-11-02T19:00:00Z,30.4367,-88.0117,14.2,4.2,149.0,99.0,'11111222,11111222,11144222' 
DISL,ioos:station:DISL:MBLA:1,2017-11-02T19:30:00Z,30.4367,-88.0117,14.2,3.69,162.4,-9999.0,'1111122,1111122,1111122' 
DISL,ioos:station:DISL:MBLA:1,2017-11-02T20:00:00Z,30.4367,-88.0117,14.2,3.6,153.0,99.0,'11111222,11111222,11144222' 
DISL,ioos:station:DISL:MBLA:1,2017-11-02T20:30:00Z,30.4367,-88.0117,14.2,3.11,153.4,-9999.0,'1111122,1111122,1111122' 
DISL,ioos:station:DISL:MBLA:1,2017-11-02T21:00:00Z,30.4367,-88.0117,14.2,3.5,152.0,99.0,'11111222,11111222,11144222' 
DISL,ioos:station:DISL:MBLA:1,2017-11-02T21:30:00Z,30.4367,-88.0117,14.2,4.43,146.4,-9999.0,'1111122,1111122,1111122' 
DISL,ioos:station:DISL:MBLA:1,2017-11-02T22:00:00Z,30.4367,-88.0117,14.2,4.2,136.0,99.0,'11111222,11111222,11144222' 
DISL,ioos:station:DISL:MBLA:1,2017-11-02T22:30:00Z,30.4367,-88.0117,14.2,4.53,140.1,-9999.0,'1111122,1111122,1111122' 
DISL,ioos:station:DISL:MBLA:1,2017-11-02T23:00:00Z,30.4367,-88.0117,14.2,5.0,128.0,99.0,'11111222,11111222,11144222' 
DISL,ioos:station:DISL:MBLA:1,2017-11-02T23:30:00Z,30.4367,-88.0117,14.2,3.04,117.5,-9999.0,'1111122,1111122,1111122' 
DISL,ioos:station:DISL:MBLA:1,2017-11-03T00:00:00Z,30.4367,-88.0117,14.2,4.1,132.0,99.0,'11111222,11111222,11144222' 
DISL,ioos:station:DISL:MBLA:1,2017-11-03T00:30:00Z,30.4367,-88.0117,14.2,4.33,139.7,-9999.0,'1111122,1111122,1111122' 
DISL,ioos:station:DISL:MBLA:1,2017-11-03T01:00:00Z,30.4367,-88.0117,14.2,5.0,130.0,99.0,'11111222,11111222,11144222' 
DISL,ioos:station:DISL:MBLA:1,2017-11-03T01:30:00Z,30.4367,-88.0117,14.2,4.54,131.3,-9999.0,'1111122,1111122,1111122' 
DISL,ioos:station:DISL:MBLA:1,2017-11-03T02:00:00Z,30.4367,-88.0117,14.2,4.8,127.0,99.0,'11111222,11111222,11144222' 
DISL,ioos:station:DISL:MBLA:1,2017-11-03T02:30:00Z,30.4367,-88.0117,14.2,,,-9999.0,'1111122,1111122,1111122' 
DISL,ioos:station:DISL:MBLA:1,2017-11-03T03:00:00Z,30.4367,-88.0117,14.2,4.8,133.0,99.0,'11111222,11111222,11144222' 
DISL,ioos:station:DISL:MBLA:1,2017-11-03T03:30:00Z,30.4367,-88.0117,14.2,,,-9999.0,'1111122,1111122,1111122' 
DISL,ioos:station:DISL:MBLA:1,2017-11-03T04:00:00Z,30.4367,-88.0117,14.2,4.2,127.0,99.0,'11111222,11111222,11144222' 
DISL,ioos:station:DISL:MBLA:1,2017-11-03T04:30:00Z,30.4367,-88.0117,14.2,3.71,118.0,-9999.0,'1111122,1111122,1111122' 
DISL,ioos:station:DISL:MBLA:1,2017-11-03T05:00:00Z,30.4367,-88.0117,14.2,3.5,119.0,99.0,'11111222,11111222,11144222' 
DISL,ioos:station:DISL:MBLA:1,2017-11-03T05:30:00Z,30.4367,-88.0117,14.2,4.12,128.3,-9999.0,'1111122,1111122,1111122' 
DISL,ioos:station:DISL:MBLA:1,2017-11-03T06:00:00Z,30.4367,-88.0117,14.2,4.2,117.0,99.0,'11111222,11111222,11144222' 
DISL,ioos:station:DISL:MBLA:1,2017-11-03T06:30:00Z,30.4367,-88.0117,14.2,4.03,129.9,-9999.0,'1111122,1111122,1111122' 
DISL,ioos:station:DISL:MBLA:1,2017-11-03T07:00:00Z,30.4367,-88.0117,14.2,3.3,129.0,99.0,'11111222,11111222,11144222' 
DISL,ioos:station:DISL:MBLA:1,2017-11-03T07:30:00Z,30.4367,-88.0117,14.2,3.82,126.2,-9999.0,'1111122,1111122,1111122' 
DISL,ioos:station:DISL:MBLA:1,2017-11-03T08:00:00Z,30.4367,-88.0117,14.2,4.3,124.0,99.0,'11111222,11111222,11144222' 
DISL,ioos:station:DISL:MBLA:1,2017-11-03T08:30:00Z,30.4367,-88.0117,14.2,2.54,118.4,-9999.0,'1111122,1111122,1111122' 
DISL,ioos:station:DISL:MBLA:1,2017-11-03T09:00:00Z,30.4367,-88.0117,14.2,2.8,95.0,99.0,'11111222,11111222,11144222' 
DISL,ioos:station:DISL:MBLA:1,2017-11-03T09:30:00Z,30.4367,-88.0117,14.2,2.57,64.44,-9999.0,'1111122,1111122,1111122' 
DISL,ioos:station:DISL:MBLA:1,2017-11-03T10:00:00Z,30.4367,-88.0117,14.2,2.6,83.0,99.0,'11111222,11111222,11144222' 
DISL,ioos:station:DISL:MBLA:1,2017-11-03T10:30:00Z,30.4367,-88.0117,14.2,2.11,87.1,-9999.0,'1111122,1111122,1111122' 
DISL,ioos:station:DISL:MBLA:1,2017-11-03T11:00:00Z,30.4367,-88.0117,14.2,2.2,84.0,99.0,'11111222,11111222,11144222' 
DISL,ioos:station:DISL:MBLA:1,2017-11-03T11:30:00Z,30.4367,-88.0117,14.2,2.33,89.8,-9999.0,'1111122,1111122,1111122' 
DISL,ioos:station:DISL:MBLA:1,2017-11-03T12:00:00Z,30.4367,-88.0117,14.2,2.3,104.0,99.0,'11111222,11111222,11144222' 
DISL,ioos:station:DISL:MBLA:1,2017-11-03T12:30:00Z,30.4367,-88.0117,14.2,2.24,101.5,-9999.0,'1111122,1111122,1111122' 
DISL,ioos:station:DISL:MBLA:1,2017-11-03T13:00:00Z,30.4367,-88.0117,14.2,3.4,88.0,99.0,'11111222,11111222,11144222' 
DISL,ioos:station:DISL:MBLA:1,2017-11-03T13:30:00Z,30.4367,-88.0117,14.2,2.97,87.6,-9999.0,'1111122,1111122,1111122' 
DISL,ioos:station:DISL:MBLA:1,2017-11-03T14:00:00Z,30.4367,-88.0117,14.2,2.1,91.0,99.0,'11111222,11111222,11144222' 
DISL,ioos:station:DISL:MBLA:1,2017-11-03T14:30:00Z,30.4367,-88.0117,14.2,2.81,101.8,-9999.0,'1111122,1111122,1111122' 
DISL,ioos:station:DISL:MBLA:1,2017-11-03T15:00:00Z,30.4367,-88.0117,14.2,2.3,111.0,99.0,'11111222,11111222,11144222' 
DISL,ioos:station:DISL:MBLA:1,2017-11-03T15:30:00Z,30.4367,-88.0117,14.2,3.16,129.8,-9999.0,'1111122,1111122,1111122' 
DISL,ioos:station:DISL:MBLA:1,2017-11-03T16:00:00Z,30.4367,-88.0117,14.2,3.1,131.0,99.0,'11111222,11111222,11144222' 
DISL,ioos:station:DISL:MBLA:1,2017-11-03T16:30:00Z,30.4367,-88.0117,14.2,3.82,125.1,-9999.0,'1111122,1111122,1111122' 
DISL,ioos:station:DISL:MBLA:1,2017-11-03T17:00:00Z,30.4367,-88.0117,14.2,4.0,130.0,99.0,'11111222,11111222,11144222' 
DISL,ioos:station:DISL:MBLA:1,2017-11-03T17:30:00Z,30.4367,-88.0117,14.2,3.49,144.0,-9999.0,'1111122,1111122,1111122' 
DISL,ioos:station:DISL:MBLA:1,2017-11-03T18:00:00Z,30.4367,-88.0117,14.2,3.8,144.0,99.0,'11111222,11111222,11144222' 
DISL,ioos:station:DISL:MBLA:1,2017-11-03T18:30:00Z,30.4367,-88.0117,14.2,3.94,154.6,-9999.0,'1111122,1111122,1111122' 
DISL,ioos:station:DISL:MBLA:1,2017-11-03T19:00:00Z,30.4367,-88.0117,14.2,3.4,165.0,99.0,'11111222,11111222,11144222' 
DISL,ioos:station:DISL:MBLA:1,2017-11-03T19:30:00Z,30.4367,-88.0117,14.2,2.73,186.3,-9999.0,'1111122,1111122,1111122' 
DISL,ioos:station:DISL:MBLA:1,2017-11-03T20:00:00Z,30.4367,-88.0117,14.2,3.2,177.0,99.0,'11111222,11111222,11144222' 
DISL,ioos:station:DISL:MBLA:1,2017-11-03T20:30:00Z,30.4367,-88.0117,14.2,3.7,173.4,-9999.0,'1111122,1111122,1111122' 
DISL,ioos:station:DISL:MBLA:1,2017-11-03T21:00:00Z,30.4367,-88.0117,14.2,3.5,179.0,99.0,'11111222,11111222,11144222' 
DISL,ioos:station:DISL:MBLA:1,2017-11-03T21:30:00Z,30.4367,-88.0117,14.2,3.53,177.3,-9999.0,'1111122,1111122,1111122' 
DISL,ioos:station:DISL:MBLA:1,2017-11-03T22:00:00Z,30.4367,-88.0117,14.2,3.5,177.0,99.0,'11111222,11111222,11144222' 
DISL,ioos:station:DISL:MBLA:1,2017-11-03T22:30:00Z,30.4367,-88.0117,14.2,3.59,178.0,-9999.0,'1111122,1111122,1111122' 
DISL,ioos:station:DISL:MBLA:1,2017-11-03T23:00:00Z,30.4367,-88.0117,14.2,3.8,171.0,99.0,'11111222,11111222,11144222' 
DISL,ioos:station:DISL:MBLA:1,2017-11-03T23:30:00Z,30.4367,-88.0117,14.2,4.28,169.1,-9999.0,'1111122,1111122,1111122' 
DISL,ioos:station:DISL:MBLA:1,2017-11-04T00:00:00Z,30.4367,-88.0117,14.2,4.2,168.0,99.0,'11111222,11111222,11144222' 
DISL,ioos:station:DISL:MBLA:1,2017-11-04T00:30:00Z,30.4367,-88.0117,14.2,4.26,165.4,-9999.0,'1111122,1111122,1111122' 
DISL,ioos:station:DISL:MBLA:1,2017-11-04T01:00:00Z,30.4367,-88.0117,14.2,3.9,167.0,99.0,'11111222,11111222,11144222' 
DISL,ioos:station:DISL:MBLA:1,2017-11-04T01:30:00Z,30.4367,-88.0117,14.2,3.22,165.4,-9999.0,'1111122,1111122,1111122' 
DISL,ioos:station:DISL:MBLA:1,2017-11-04T02:00:00Z,30.4367,-88.0117,14.2,2.9,163.0,99.0,'11111222,11111222,11144222' 
DISL,ioos:station:DISL:MBLA:1,2017-11-04T02:30:00Z,30.4367,-88.0117,14.2,,,-9999.0,'1111122,1111122,1111122' 
DISL,ioos:station:DISL:MBLA:1,2017-11-04T03:00:00Z,30.4367,-88.0117,14.2,2.2,172.0,99.0,'11111222,11111222,11144222' 
DISL,ioos:station:DISL:MBLA:1,2017-11-04T03:30:00Z,30.4367,-88.0117,14.2,1.74,155.6,-9999.0,'1111122,1111122,1111122' 
DISL,ioos:station:DISL:MBLA:1,2017-11-04T04:00:00Z,30.4367,-88.0117,14.2,1.7,164.0,99.0,'11111222,11111222,11144222' 
DISL,ioos:station:DISL:MBLA:1,2017-11-04T04:30:00Z,30.4367,-88.0117,14.2,1.36,153.6,-9999.0,'1111122,1111122,1111122' 
DISL,ioos:station:DISL:MBLA:1,2017-11-04T05:00:00Z,30.4367,-88.0117,14.2,1.5,166.0,99.0,'11111222,11111222,11144222' 
DISL,ioos:station:DISL:MBLA:1,2017-11-04T05:30:00Z,30.4367,-88.0117,14.2,0.49,169.8,-9999.0,'1111122,1111122,1111122' 
DISL,ioos:station:DISL:MBLA:1,2017-11-04T06:00:00Z,30.4367,-88.0117,14.2,0.4,317.0,99.0,'11111222,11111222,11144222' 
DISL,ioos:station:DISL:MBLA:1,2017-11-04T06:30:00Z,30.4367,-88.0117,14.2,0.83,334.5,-9999.0,'1111122,1111122,1111122' 
DISL,ioos:station:DISL:MBLA:1,2017-11-04T07:00:00Z,30.4367,-88.0117,14.2,0.9,2.0,99.0,'11111222,11111222,11144222' 
DISL,ioos:station:DISL:MBLA:1,2017-11-04T07:30:00Z,30.4367,-88.0117,14.2,2.07,357.2,-9999.0,'1111122,1111122,1111122' 
DISL,ioos:station:DISL:MBLA:1,2017-11-04T08:00:00Z,30.4367,-88.0117,14.2,1.9,0.0,99.0,'11111222,11111222,11144222' 
DISL,ioos:station:DISL:MBLA:1,2017-11-04T08:30:00Z,30.4367,-88.0117,14.2,2.57,350.9,-9999.0,'1111122,1111122,1111122' 
DISL,ioos:station:DISL:MBLA:1,2017-11-04T09:00:00Z,30.4367,-88.0117,14.2,2.5,349.0,99.0,'11111222,11111222,11144222' 
DISL,ioos:station:DISL:MBLA:1,2017-11-04T09:30:00Z,30.4367,-88.0117,14.2,3.33,351.0,-9999.0,'1111122,1111122,1111122' 
DISL,ioos:station:DISL:MBLA:1,2017-11-04T10:00:00Z,30.4367,-88.0117,14.2,3.7,354.0,99.0,'11111222,11111222,11144222' 
DISL,ioos:station:DISL:MBLA:1,2017-11-04T10:30:00Z,30.4367,-88.0117,14.2,4.38,6.869,-9999.0,'1111122,1111122,1111122' 
DISL,ioos:station:DISL:MBLA:1,2017-11-04T11:00:00Z,30.4367,-88.0117,14.2,4.3,12.0,99.0,'11111222,11111222,11144222' 
DISL,ioos:station:DISL:MBLA:1,2017-11-04T11:30:00Z,30.4367,-88.0117,14.2,4.42,18.41,-9999.0,'1111122,1111122,1111122' 
DISL,ioos:station:DISL:MBLA:1,2017-11-04T12:00:00Z,30.4367,-88.0117,14.2,5.2,14.0,99.0,'11111222,11111222,11144222' 
DISL,ioos:station:DISL:MBLA:1,2017-11-04T12:30:00Z,30.4367,-88.0117,14.2,3.79,26.88,-9999.0,'1111122,1111122,1111122' 
DISL,ioos:station:DISL:MBLA:1,2017-11-04T13:00:00Z,30.4367,-88.0117,14.2,2.4,41.0,99.0,'11111222,11111222,11144222' 
DISL,ioos:station:DISL:MBLA:1,2017-11-04T13:30:00Z,30.4367,-88.0117,14.2,1.89,124.0,-9999.0,'1111122,1111122,1111122' 
DISL,ioos:station:DISL:MBLA:1,2017-11-04T14:00:00Z,30.4367,-88.0117,14.2,1.6,139.0,99.0,'11111222,11111222,11144222' 
DISL,ioos:station:DISL:MBLA:1,2017-11-04T14:30:00Z,30.4367,-88.0117,14.2,0.81,184.7,-9999.0,'1111122,1111122,1111122' 
DISL,ioos:station:DISL:MBLA:1,2017-11-04T15:00:00Z,30.4367,-88.0117,14.2,0.8,170.0,99.0,'11111222,11111222,11144222' 
DISL,ioos:station:DISL:MBLA:1,2017-11-04T15:30:00Z,30.4367,-88.0117,14.2,0.75,180.3,-9999.0,'1111122,1111122,1111122' 
DISL,ioos:station:DISL:MBLA:1,2017-11-04T16:00:00Z,30.4367,-88.0117,14.2,0.6,171.0,99.0,'11111222,11111222,11144222' 
DISL,ioos:station:DISL:MBLA:1,2017-11-04T16:30:00Z,30.4367,-88.0117,14.2,0.53,197.4,-9999.0,'1111122,1111122,1111122' 
DISL,ioos:station:DISL:MBLA:1,2017-11-04T17:00:00Z,30.4367,-88.0117,14.2,0.8,163.0,99.0,'11111222,11111222,11144222' 
DISL,ioos:station:DISL:MBLA:1,2017-11-04T17:30:00Z,30.4367,-88.0117,14.2,1.7,150.3,-9999.0,'1111122,1111122,1111122' 
DISL,ioos:station:DISL:MBLA:1,2017-11-04T18:00:00Z,30.4367,-88.0117,14.2,3.1,164.0,99.0,'11111222,11111222,11144222' 
DISL,ioos:station:DISL:MBLA:1,2017-11-04T18:30:00Z,30.4367,-88.0117,14.2,3.36,158.7,-9999.0,'1111122,1111122,1111122' 
DISL,ioos:station:DISL:MBLA:1,2017-11-04T19:00:00Z,30.4367,-88.0117,14.2,3.3,159.0,99.0,'11111222,11111222,11144222' 
DISL,ioos:station:DISL:MBLA:1,2017-11-04T19:30:00Z,30.4367,-88.0117,14.2,3.28,169.9,-9999.0,'1111122,1111122,1111122' 
DISL,ioos:station:DISL:MBLA:1,2017-11-04T20:00:00Z,30.4367,-88.0117,14.2,3.7,180.0,99.0,'11111222,11111222,11144222' 
DISL,ioos:station:DISL:MBLA:1,2017-11-04T20:30:00Z,30.4367,-88.0117,14.2,3.88,177.3,-9999.0,'1111122,1111122,1111122' 
DISL,ioos:station:DISL:MBLA:1,2017-11-04T21:00:00Z,30.4367,-88.0117,14.2,4.1,181.0,99.0,'11111222,11111222,11144222' 
DISL,ioos:station:DISL:MBLA:1,2017-11-04T21:30:00Z,30.4367,-88.0117,14.2,4.48,188.1,-9999.0,'1111122,1111122,1111122' 
DISL,ioos:station:DISL:MBLA:1,2017-11-04T22:00:00Z,30.4367,-88.0117,14.2,4.6,183.0,99.0,'11111222,11111222,11144222' 
DISL,ioos:station:DISL:MBLA:1,2017-11-04T22:30:00Z,30.4367,-88.0117,14.2,4.89,192.7,-9999.0,'1111122,1111122,1111122' 
DISL,ioos:station:DISL:MBLA:1,2017-11-04T23:00:00Z,30.4367,-88.0117,14.2,4.2,191.0,99.0,'11111222,11111222,11144222' 
DISL,ioos:station:DISL:MBLA:1,2017-11-04T23:30:00Z,30.4367,-88.0117,14.2,3.44,176.1,-9999.0,'1111122,1111122,1111122' 
DISL,ioos:station:DISL:MBLA:1,2017-11-05T00:00:00Z,30.4367,-88.0117,14.2,3.1,164.0,99.0,'11111222,11111222,11144222' 
DISL,ioos:station:DISL:MBLA:1,2017-11-05T00:30:00Z,30.4367,-88.0117,14.2,2.6,169.8,-9999.0,'1111122,1111122,1111122' 
DISL,ioos:station:DISL:MBLA:1,2017-11-05T01:00:00Z,30.4367,-88.0117,14.2,2.7,181.0,99.0,'11111222,11111222,11144222' 
DISL,ioos:station:DISL:MBLA:1,2017-11-05T01:30:00Z,30.4367,-88.0117,14.2,2.46,178.1,-9999.0,'1111122,1111122,1111122' 
DISL,ioos:station:DISL:MBLA:1,2017-11-05T02:00:00Z,30.4367,-88.0117,14.2,2.5,189.0,99.0,'11111222,11111222,11144222' 
DISL,ioos:station:DISL:MBLA:1,2017-11-05T02:30:00Z,30.4367,-88.0117,14.2,2.93,193.1,-9999.0,'1111122,1111122,1111122' 
DISL,ioos:station:DISL:MBLA:1,2017-11-05T03:00:00Z,30.4367,-88.0117,14.2,3.2,196.0,99.0,'11111222,11111222,11144222' 
DISL,ioos:station:DISL:MBLA:1,2017-11-05T03:30:00Z,30.4367,-88.0117,14.2,2.61,197.2,-9999.0,'1111122,1111122,1111122' 
DISL,ioos:station:DISL:MBLA:1,2017-11-05T04:00:00Z,30.4367,-88.0117,14.2,2.6,196.0,99.0,'11111222,11111222,11144222' 
DISL,ioos:station:DISL:MBLA:1,2017-11-05T04:30:00Z,30.4367,-88.0117,14.2,2.76,191.9,-9999.0,'1111122,1111122,1111122' 